TimeCST,TemperatureF,Dew PointF,Humidity,Sea Level PressureIn,VisibilityMPH,Wind Direction,Wind SpeedMPH,Gust SpeedMPH,PrecipitationIn,Events,Conditions,WindDirDegrees,DateUTC
12:15 AM,34.7,29.3,81,30.33,10.0,South,3.5,-,N/A,,Overcast,190,2013-11-10 06:15:00
12:35 AM,35.2,29.1,78,30.33,10.0,Calm,Calm,-,N/A,,Overcast,0,2013-11-10 06:35:00
12:55 AM,34.7,30.0,83,30.33,10.0,South,3.5,-,N/A,,Overcast,180,2013-11-10 06:55:00
1:15 AM,35.1,29.8,81,30.33,10.0,South,3.5,-,N/A,,Overcast,170,2013-11-10 07:15:00
1:35 AM,35.2,30.2,82,30.33,10.0,SSE,3.5,-,N/A,,Overcast,160,2013-11-10 07:35:00
1:55 AM,35.4,30.9,84,30.32,10.0,Calm,Calm,-,N/A,,Overcast,0,2013-11-10 07:55:00
2:15 AM,36.0,30.2,80,30.32,10.0,SE,3.5,-,N/A,,Overcast,140,2013-11-10 08:15:00
2:35 AM,35.8,30.6,81,30.31,10.0,SE,3.5,-,N/A,,Overcast,140,2013-11-10 08:35:00
2:55 AM,35.8,30.2,80,30.31,10.0,Calm,Calm,-,N/A,,Overcast,0,2013-11-10 08:55:00
3:15 AM,35.2,29.5,80,30.31,10.0,SSE,5.8,-,N/A,,Overcast,160,2013-11-10 09:15:00
3:35 AM,34.0,27.9,78,30.31,10.0,SE,4.6,-,N/A,,Mostly Cloudy,140,2013-11-10 09:35:00
3:55 AM,32.5,27.3,81,30.30,10.0,SE,5.8,-,N/A,,Clear,140,2013-11-10 09:55:00
4:15 AM,31.3,26.4,82,30.30,10.0,SE,4.6,-,N/A,,Clear,140,2013-11-10 10:15:00
4:35 AM,30.0,25.7,84,30.29,10.0,SSE,5.8,-,N/A,,Clear,150,2013-11-10 10:35:00
4:55 AM,29.8,25.5,84,30.29,10.0,SSE,8.1,-,N/A,,Clear,150,2013-11-10 10:55:00
5:15 AM,30.9,26.1,82,30.29,10.0,SSE,6.9,-,N/A,,Clear,160,2013-11-10 11:15:00
5:35 AM,30.0,25.9,85,30.28,10.0,South,8.1,-,N/A,,Clear,170,2013-11-10 11:35:00
5:55 AM,30.7,26.4,84,30.28,10.0,South,8.1,-,N/A,,Clear,170,2013-11-10 11:55:00
6:15 AM,31.3,26.6,83,30.28,10.0,South,8.1,-,N/A,,Clear,170,2013-11-10 12:15:00
6:35 AM,30.6,26.4,85,30.28,10.0,South,9.2,-,N/A,,Clear,180,2013-11-10 12:35:00
6:55 AM,31.1,26.6,83,30.28,10.0,South,10.4,-,N/A,,Clear,170,2013-11-10 12:55:00
7:15 AM,30.9,26.4,83,30.28,10.0,South,8.1,-,N/A,,Clear,170,2013-11-10 13:15:00
7:35 AM,29.8,26.4,87,30.28,10.0,South,9.2,-,N/A,,Clear,170,2013-11-10 13:35:00
7:55 AM,31.3,27.1,85,30.28,10.0,South,8.1,-,N/A,,Clear,170,2013-11-10 13:55:00
8:15 AM,32.0,27.3,83,30.28,10.0,South,6.9,-,N/A,,Clear,170,2013-11-10 14:15:00
8:35 AM,33.3,28.2,82,30.27,10.0,South,9.2,-,N/A,,Clear,180,2013-11-10 14:35:00
8:55 AM,36.0,28.6,75,30.27,10.0,South,15.0,19.6,N/A,,Clear,180,2013-11-10 14:55:00
9:15 AM,37.4,29.1,72,30.27,10.0,South,15.0,20.7,N/A,,Clear,180,2013-11-10 15:15:00
9:35 AM,38.7,29.1,69,30.26,10.0,South,17.3,20.7,N/A,,Clear,180,2013-11-10 15:35:00
9:55 AM,40.3,29.5,65,30.26,10.0,South,16.1,-,N/A,,Clear,180,2013-11-10 15:55:00
10:15 AM,41.7,29.7,62,30.25,10.0,South,17.3,20.7,N/A,,Clear,180,2013-11-10 16:15:00
10:35 AM,42.4,29.3,60,30.23,10.0,South,23.0,26.5,N/A,,Clear,190,2013-11-10 16:35:00
10:55 AM,43.9,30.0,58,30.23,10.0,South,20.7,29.9,N/A,,Clear,190,2013-11-10 16:55:00
11:15 AM,45.7,31.3,57,30.22,10.0,South,20.7,25.3,N/A,,Clear,190,2013-11-10 17:15:00
11:35 AM,47.5,32.0,55,30.20,10.0,SSW,26.5,32.2,N/A,,Clear,200,2013-11-10 17:35:00
11:55 AM,48.7,32.7,54,30.19,10.0,South,24.2,29.9,N/A,,Clear,190,2013-11-10 17:55:00
12:15 PM,50.4,33.8,53,30.18,10.0,SSW,20.7,27.6,N/A,,Clear,200,2013-11-10 18:15:00
12:35 PM,52.0,34.5,51,30.17,10.0,SSW,18.4,29.9,N/A,,Clear,210,2013-11-10 18:35:00
12:55 PM,52.9,35.8,52,30.15,10.0,SSW,19.6,28.8,N/A,,Clear,210,2013-11-10 18:55:00
1:15 PM,53.6,37.9,55,30.14,10.0,SW,20.7,26.5,N/A,,Clear,220,2013-11-10 19:15:00
1:35 PM,54.0,38.5,56,30.12,10.0,SW,21.9,27.6,N/A,,Clear,220,2013-11-10 19:35:00
1:55 PM,54.9,38.8,55,30.12,10.0,SW,19.6,23.0,N/A,,Clear,220,2013-11-10 19:55:00
2:15 PM,55.9,39.4,54,30.11,10.0,SW,19.6,23.0,N/A,,Clear,230,2013-11-10 20:15:00
2:35 PM,56.5,39.4,53,30.10,10.0,SW,15.0,-,N/A,,Clear,220,2013-11-10 20:35:00
2:55 PM,57.0,39.7,52,30.10,10.0,SSW,16.1,-,N/A,,Clear,210,2013-11-10 20:55:00
3:15 PM,57.4,39.6,51,30.10,10.0,SW,12.7,-,N/A,,Clear,230,2013-11-10 21:15:00
3:35 PM,57.6,39.2,50,30.09,10.0,SSW,16.1,-,N/A,,Clear,210,2013-11-10 21:35:00
3:55 PM,57.7,39.4,50,30.08,10.0,SW,13.8,19.6,N/A,,Clear,220,2013-11-10 21:55:00
4:15 PM,57.7,39.6,51,30.08,10.0,SSW,11.5,-,N/A,,Clear,210,2013-11-10 22:15:00
4:35 PM,57.2,39.6,52,30.08,10.0,SSW,9.2,-,N/A,,Clear,210,2013-11-10 22:35:00
4:55 PM,55.6,39.7,55,30.09,10.0,SSW,5.8,-,N/A,,Clear,210,2013-11-10 22:55:00
5:15 PM,52.9,39.2,60,30.09,10.0,SSW,5.8,-,N/A,,Clear,210,2013-11-10 23:15:00
5:35 PM,48.9,38.1,66,30.09,10.0,South,9.2,-,N/A,,Clear,190,2013-11-10 23:35:00
5:55 PM,48.2,39.0,71,30.09,10.0,SSW,9.2,-,N/A,,Clear,210,2013-11-10 23:55:00
6:15 PM,49.3,39.4,69,30.09,10.0,SSW,8.1,-,N/A,,Clear,210,2013-11-11 00:15:00
6:35 PM,49.1,39.4,69,30.09,10.0,SSW,9.2,-,N/A,,Clear,210,2013-11-11 00:35:00
6:55 PM,49.3,39.4,69,30.09,10.0,SSW,8.1,-,N/A,,Clear,210,2013-11-11 00:55:00
7:15 PM,47.8,39.2,72,30.09,10.0,SSW,9.2,-,N/A,,Clear,200,2013-11-11 01:15:00
7:35 PM,45.5,38.3,76,30.09,10.0,SSW,8.1,-,N/A,,Clear,210,2013-11-11 01:35:00
7:55 PM,43.9,37.6,78,30.09,10.0,SSW,6.9,-,N/A,,Clear,210,2013-11-11 01:55:00
8:15 PM,43.7,38.3,81,30.10,10.0,WSW,3.5,-,N/A,,Clear,240,2013-11-11 02:15:00
8:35 PM,42.8,37.6,82,30.10,10.0,WNW,5.8,-,N/A,,Clear,290,2013-11-11 02:35:00
8:55 PM,42.3,37.2,82,30.10,10.0,West,3.5,-,N/A,,Clear,280,2013-11-11 02:55:00
9:15 PM,40.1,35.6,84,30.11,10.0,West,3.5,-,N/A,,Clear,260,2013-11-11 03:15:00
9:35 PM,40.6,36.3,85,30.12,10.0,WNW,5.8,-,N/A,,Clear,290,2013-11-11 03:35:00
9:55 PM,39.6,35.6,86,30.11,10.0,Calm,Calm,-,N/A,,Clear,0,2013-11-11 03:55:00
10:15 PM,39.6,35.6,86,30.11,10.0,Calm,Calm,-,N/A,,Clear,0,2013-11-11 04:15:00
10:35 PM,40.8,36.0,83,30.12,10.0,NNW,5.8,-,N/A,,Clear,340,2013-11-11 04:35:00
10:55 PM,37.0,32.9,85,30.12,10.0,North,6.9,-,N/A,,Clear,360,2013-11-11 04:55:00
11:15 PM,37.9,33.3,83,30.13,10.0,NNW,3.5,-,N/A,,Clear,340,2013-11-11 05:15:00
11:35 PM,38.1,32.9,81,30.13,10.0,NNW,4.6,-,N/A,,Clear,340,2013-11-11 05:35:00
11:55 PM,37.8,32.4,81,30.14,10.0,NNW,5.8,-,N/A,,Clear,340,2013-11-11 05:55:00